Hourly Data Report for November 01, 2020

VICTORIA UNIVERSITY CS
BRITISH COLUMBIA
Current Station Operator: ECCC - MSC

48°27'25.200" N
123°18'16.600" W
60.10 m
1018598
71783
WYJ

Download Data

Hourly Data (November 2020)
Hourly Data Report for November 1, 2020
TIME
LST
Temp Definition
°C
Dew Point Definition
°C
Rel Hum Definition
%
Precip. Amount Definition
mm

Wind Dir Definition
10's deg

Wind Spd Definition
km/h
Visibility Definition
km
Stn Press Definition
kPa
Hmdx Definition


Wind Chill Definition


Weather Definition


00:00 7.0 4.7 85 0.0 34 7   101.97     LegendNANA
01:00 7.2 4.7 84 0.0 35 9   101.95     LegendNANA
02:00 7.1 5.3 88 0.0 36 10   101.97     LegendNANA
03:00 6.6 5.2 91 0.0 36 5   101.92     LegendNANA
04:00 6.2 5.4 95 0.0 35 5   101.89     LegendNANA
05:00 6.6 5.6 94 0.0 36 6   101.87     LegendNANA
06:00 6.5 6.0 97 0.0 36 7   101.83     LegendNANA
07:00 6.3 5.7 96 0.0 36 7   101.81     LegendNANA
08:00 6.8 6.3 96 0.0 36 8   101.80     LegendNANA
09:00 8.0 6.6 91 0.0 36 14   101.79     LegendNANA
10:00 8.9 7.0 87 0.0 36 13   101.75     LegendNANA
11:00 9.8 6.9 82 0.0 36 12   101.73     LegendNANA
12:00 10.5 6.9 79 0.0 1 11   101.68     LegendNANA
13:00 10.5 6.8 78 0.0 2 9   101.59     LegendNANA
14:00 10.8 6.6 75 0.0 1 8   101.52     LegendNANA
15:00 10.8 7.1 78 0.0 2 7   101.49     LegendNANA
16:00 10.3 6.1 75 0.0 36 5   101.45     LegendNANA
17:00 7.9 5.2 83 0.0 35 4   101.39     LegendNANA
18:00 6.4 5.0 90 0.0 35 4   101.38     LegendNANA
19:00 5.0 4.3 96 0.0 31 3   101.39     LegendNANA
20:00 5.2 5.2 100 0.0 30 3   101.40     LegendNANA
21:00 4.8 4.6 99 0.0 36 3   101.37     LegendNANA
22:00 5.3 5.3 100 0.0 1 3   101.36     LegendNANA
23:00 4.5 4.4 99 0.0 32 4   101.39     LegendNANA

Notes on Data Quality.

Legend

  • E = Estimated
  • M = Missing
  • NA = Not Available*
  • [empty] = Indicates an unobserved value
Date modified: